Location: Baia Mare
(47.6567°N, 23.5850°E)
Time: 04:47:05
(UTC+03:00)

ISS - Pass Details

Date: 16 September 2018
Orbit: 403 x 408 km, 51.6° (Epoch: 26 September)

Event Time Altitude Azimuth Distance (km) Brightness Sun altitude
Exits shadow 05:10:46 62° 173° (S) 460 -3.8 -19.1°
Drops below altitude 10° 05:13:43 10° 126° (SE) 1,456 -0.7 -18.6°
Sets 05:15:48 0° 123° (ESE) 2,312 0.4 -18.3°
